Ketchikan, AK

3:02 AM AKST on January 21, 2019 (GMT -0900)
Ketchikan International

Weather History for PAKT - December, 2018

Change the Weather History Date:

Monday, December 10, 2018

  Actual Average Record
Temperature  
Mean Temperature 42 °F -  
Max Temperature 44 °F 40 °F 56 °F (1957)
Min Temperature 39 °F 31 °F 11 °F (1977)
Degree Days  
Heating Degree Days 24    
Moisture  
Dew Point 38 °F    
Average Humidity 85    
Maximum Humidity 89    
Minimum Humidity 76    
Precipitation  
Precipitation 0.00 in - - ()
Sea Level Pressure  
Sea Level Pressure 29.56 in    
Wind  
Wind Speed 14 mph (SE)    
Max Wind Speed 38 mph    
Max Gust Speed 47 mph    
Visibility 7 miles    
Events Rain    
Averages and records for this station are not official NWS values.
T = Trace of Precipitation, MM = Missing Value Source: NWS Daily Summary

Daily Weather History Graph

Daily Weather History Graph

Search for Another Location

Airport or City:

Astronomy

Dec. 10, 2018 Rise Set
Actual Time 8:02 AM AKST 3:16 PM AKST
Civil Twilight 7:17 AM AKST 4:02 PM AKST
Nautical Twilight 6:29 AM AKST 4:49 PM AKST
Astronomical Twilight 5:44 AM AKST 5:34 PM AKST
Moon 10:42 AM AKST (12/10) 6:35 PM AKST (12/10)
Length of Visible Light 8h 44m
Length of Day
7h 13m
Waxing Crescent, 12% of the Moon is Illuminated
Dec 10
Waxing Crescent
Dec 15
First Quarter
Dec 22
Full
Dec 29
Last Quarter
Jan 5
New

Hourly Weather History & Observations

Time (AKST) Temp. Windchill Dew Point Humidity Pressure Visibility Wind Dir Wind Speed Gust Speed Precip Events Conditions
12:53 AM 41.0 °F 39.0 °F 36.0 °F 82% 29.85 in 7.0 mi South 3.5 mph - N/A Rain Light Rain
1:53 AM 39.0 °F 34.0 °F 36.0 °F 89% 29.86 in 10.0 mi South 6.9 mph - N/A   Scattered Clouds
2:40 AM 41.0 °F 35.8 °F 37.0 °F 86% 29.86 in 10.0 mi SSE 8.1 mph - N/A   Overcast
2:53 AM 39.9 °F 35.1 °F 37.0 °F 89% 29.86 in 10.0 mi SSE 6.9 mph - N/A   Overcast
3:04 AM 39.9 °F 34.5 °F 37.0 °F 89% 29.86 in 9.0 mi SSE 8.1 mph - N/A Rain Light Rain
3:38 AM 42.1 °F 37.1 °F 37.9 °F 85% 29.85 in 10.0 mi SE 8.1 mph - N/A Rain Light Rain
3:53 AM 42.1 °F 37.1 °F 37.9 °F 85% 29.85 in 9.0 mi SSE 8.1 mph - N/A Rain Light Rain
5:02 AM 43.0 °F 36.0 °F 37.9 °F 82% 29.83 in 10.0 mi SE 13.8 mph - N/A   Overcast
5:26 AM 43.0 °F 37.2 °F 37.9 °F 82% 29.82 in 10.0 mi SE 10.4 mph - N/A   Overcast
5:45 AM 43.0 °F 36.0 °F 37.9 °F 82% 29.81 in 10.0 mi SE 13.8 mph - N/A   Overcast
5:53 AM 44.1 °F 36.8 °F 37.9 °F 79% 29.81 in 10.0 mi SE 16.1 mph - N/A   Overcast
6:53 AM 44.1 °F 37.7 °F 37.9 °F 79% 29.81 in 10.0 mi SE 12.7 mph 28.8 mph N/A   Overcast
7:53 AM 44.6 °F 36.9 °F 37.4 °F 76% 29.78 in 10.0 mi SE 18.4 mph 26.5 mph N/A Rain Light Rain
8:53 AM 42.8 °F 34.5 °F 37.4 °F 81% 29.78 in 6.0 mi SE 18.4 mph - N/A Rain Light Rain
9:53 AM 42.8 °F 34.8 °F 39.2 °F 87% 29.75 in 6.0 mi SE 17.3 mph 28.8 mph N/A Rain Light Rain
10:53 AM 42.8 °F 35.4 °F 39.2 °F 87% 29.71 in 10.0 mi SE 15.0 mph - N/A Rain Light Rain
11:53 AM 42.8 °F 34.8 °F 39.2 °F 87% 29.67 in 4.0 mi SE 17.3 mph 27.6 mph N/A Rain Light Rain
12:53 PM 42.8 °F 34.0 °F 39.2 °F 87% 29.62 in 8.0 mi SE 20.7 mph 29.9 mph N/A Rain Light Rain
1:53 PM 42.8 °F 32.9 °F 39.2 °F 87% 29.56 in 5.0 mi SE 26.5 mph 39.1 mph N/A Rain Light Rain
2:53 PM 42.8 °F 32.3 °F 39.2 °F 87% 29.49 in 3.0 mi SE 29.9 mph 42.6 mph N/A Rain Light Rain
3:53 PM 41.0 °F 29.3 °F 37.4 °F 87% 29.43 in 3.0 mi SE 33.4 mph 42.6 mph N/A Rain Rain
4:53 PM 42.8 °F 31.1 °F 37.4 °F 81% 29.37 in 5.0 mi SE 38.0 mph 47.2 mph N/A Rain Light Rain
5:53 PM 42.8 °F 31.8 °F 37.4 °F 81% 29.34 in 4.0 mi SE 33.4 mph 47.2 mph N/A Rain Light Rain
6:51 PM 42.8 °F 33.3 °F 39.2 °F 87% 29.30 in 2.5 mi SE 24.2 mph 35.7 mph N/A Rain Rain
6:53 PM 42.8 °F 33.5 °F 39.2 °F 87% 29.30 in 2.5 mi SE 23.0 mph 35.7 mph N/A Rain Rain
7:51 PM 42.8 °F 33.3 °F 39.2 °F 87% 29.25 in 4.0 mi SE 24.2 mph 33.4 mph N/A Rain Light Rain
7:53 PM 42.8 °F 34.0 °F 39.2 °F 87% 29.26 in 4.0 mi SSE 20.7 mph 33.4 mph N/A Rain Light Rain
8:51 PM 42.8 °F 34.5 °F 39.2 °F 87% 29.20 in 5.0 mi SSE 18.4 mph 28.8 mph N/A Rain Light Rain
8:53 PM 43.0 °F 34.8 °F 39.9 °F 89% 29.20 in 5.0 mi SSE 18.4 mph 28.8 mph N/A Rain Light Rain
9:51 PM 42.8 °F 33.8 °F 39.2 °F 87% 29.16 in 8.0 mi SSE 21.9 mph - N/A Rain Light Rain
9:53 PM 43.0 °F 34.5 °F 39.0 °F 86% 29.16 in 8.0 mi SE 19.6 mph 28.8 mph N/A Rain Light Rain
10:53 PM 43.0 °F 35.1 °F 39.9 °F 89% 29.10 in 7.0 mi SSE 17.3 mph 27.6 mph N/A Rain Light Rain
11:53 PM 44.1 °F 36.5 °F 41.0 °F 89% 29.04 in 5.0 mi SSE 17.3 mph 26.5 mph N/A Rain Light Rain